Wind_Speed
19 25 26 23 25 24 24 20 18 16 13 14 16 17 21 20 21 25 26 28 31 37 39 47 45 43 37 30 35 31 32 27 15 15 17 20 18 15 16 16 14 13 16
17 21 21 24 21 22 20 17 17 14 12 13 14 15 15 16 16 17 19 17 28 33 35 46 43 45 40 33 31 26 29 24 24 15 20 21 20 19 18 21 22 25 22
7 13 17 23 24 24 21 20 19 15 13 11 12 11 13 14 15 17 13 14 25 25 27 41 46 44 46 38 31 28 24 20 20 21 20 22 22 25 27 27 27 25 21
12 16 21 30 29 26 24 22 19 18 15 13 12 12 15 15 17 15 14 10 12 24 32 35 37 34 37 39 34 29 30 24 23 25 25 25 26 29 27 22 18 19 23
9 16 19 33 31 28 24 20 19 16 14 13 12 13 13 14 15 14 14 13 15 21 25 31 37 33 26 27 27 30 24 24 24 25 26 29 25 16 15 13 13 17 22
9 19 20 21 28 28 24 23 20 18 17 15 14 14 16 16 14 16 15 15 15 19 21 19 31 32 31 29 31 31 31 25 30 32 25 17 16 17 16 16 15 18 17
12 8 15 19 23 27 27 24 22 18 17 15 14 14 15 15 12 13 15 18 19 21 23 23 27 30 28 31 29 30 28 30 22 21 20 21 23 21 20 20 20 22 22
17 17 14 7 16 22 23 24 22 20 17 15 14 14 14 14 13 12 13 13 16 20 21 23 24 22 23 24 24 26 22 21 22 23 23 24 26 25 24 21 20 18 19
21 21 18 14 12 7 15 20 21 20 19 17 16 16 15 14 15 15 16 17 18 19 18 19 18 18 17 16 16 18 19 20 20 21 20 18 16 14 14 15 14 17 18
23 21 18 17 14 14 12 8 9 13 17 16 17 15 15 15 14 13 15 18 21 20 19 18 18 16 16 16 13 14 14 12 10 8 7 8 9 9 8 7 7 8 8
18 17 18 17 18 16 16 14 12 9 9 9 11 13 12 11 12 11 11 12 14 17 18 16 14 13 12 10 9 9 8 9 9 6 5 5 6 6 6 5 4 3 3
17 18 18 17 15 14 14 16 16 16 17 15 14 15 15 16 14 11 9 10 13 14 17 16 16 13 11 9 7 7 10 9 9 10 8 8 7 5 4 3 2 1 0
14 16 16 15 15 14 13 14 13 12 14 17 18 20 21 18 16 14 12 11 11 12 16 16 14 14 14 16 16 15 13 11 8 8 8 6 5 3 2 1 1 1 2
14 14 13 14 14 13 14 15 14 15 17 20 20 21 22 20 19 17 17 16 15 14 15 13 11 12 12 12 11 11 10 9 7 6 6 5 4 3 1 1 1 3 5
15 15 13 12 12 12 14 13 13 14 13 16 16 16 17 17 14 13 12 12 11 11 9 9 9 7 9 10 9 8 8 7 5 4 4 4 4 3 2 0 2 3 5
15 15 14 12 12 12 12 13 13 12 11 10 10 9 11 11 9 7 6 6 5 6 5 8 10 11 11 10 9 8 7 6 5 4 3 2 1 0 1 2 3 5 5
11 10 10 10 10 10 10 9 8 8 6 9 10 10 8 8 6 5 4 4 7 7 6 9 9 9 8 8 7 7 5 5 3 2 2 1 2 4 5 4 4 5 6
9 8 7 7 7 7 6 7 6 5 5 5 7 6 7 6 5 5 5 4 5 6 6 7 7 7 7 6 5 4 3 3 2 2 2 2 4 6 7 7 7 8 8
9 8 7 6 5 5 5 5 4 4 3 3 3 1 2 3 3 3 4 3 4 6 6 5 5 4 4 4 3 2 2 2 2 3 4 5 6 7 8 8 9 10 11
8 8 7 7 6 5 4 3 2 1 0 1 1 2 2 2 1 1 3 3 3 3 3 2 2 2 2 1 2 2 3 5 5 6 6 7 7 7 8 9 10 11 11
9 8 7 6 5 5 5 5 4 2 0 0 0 2 4 2 0 1 1 2 2 2 2 2 1 1 2 2 3 4 5 6 7 7 7 7 7 8 9 10 10 11 11
9 9 8 7 5 5 5 5 5 4 2 1 1 1 2 1 1 1 1 2 2 3 3 3 3 4 4 5 5 6 6 7 7 7 7 7 8 8 8 9 10 11 11
9 9 8 7 6 5 5 5 4 3 3 3 4 4 5 5 4 3 3 4 4 4 5 4 5 5 6 6 7 7 7 7 7 7 7 7 7 8 8 9 9 10 11
9 8 8 8 8 8 8 6 5 5 4 4 5 5 6 6 5 4 4 3 4 4 5 5 5 6 6 6 7 7 7 8 8 8 8 8 8 8 9 9 10 11 12
8 9 8 7 7 8 7 7 7 7 8 8 7 7 7 7 7 7 7 5 5 4 4 4 5 5 6 7 7 7 8 9 9 10 9 9 9 9 10 10 11 11 11
11 10 9 8 7 7 7 8 9 9 9 10 10 10 10 9 9 9 9 9 8 8 8 7 6 6 7 8 9 9 10 11 11 11 11 11 11 11 10 10 11 11 11
Wind_Direction
219 220 233 230 212 199 194 192 191 190 193 217 227 237 235 240 247 250 248 249 258 223 219 210 205 202 196 193 200 213 221 223 203 198 215 210 203 199 210 218 232 245 247
226 236 221 226 200 187 190 189 183 194 207 215 220 236 234 243 244 236 242 253 246 225 218 214 215 199 196 192 201 215 197 194 205 220 218 205 205 214 239 252 260 251 255
209 221 233 215 189 196 195 187 189 195 209 201 210 226 240 244 238 245 256 246 228 215 223 204 212 205 207 201 202 207 216 219 218 221 225 232 241 251 262 268 266 248 243
219 215 219 223 188 187 190 189 197 191 193 202 217 233 240 240 242 241 245 231 229 234 219 226 202 206 207 211 210 220 225 212 225 233 242 258 267 274 267 254 240 241 246
197 206 227 171 181 178 185 194 198 199 203 212 216 235 240 242 241 235 230 215 233 229 217 206 203 205 204 209 215 214 227 232 238 247 259 265 256 228 226 234 241 245 242
126 165 181 176 168 177 182 189 197 199 198 208 220 228 244 245 243 239 235 224 218 214 217 222 207 211 219 216 221 233 232 235 246 253 244 232 228 235 243 243 244 242 225
35 89 135 169 158 165 177 185 191 198 202 207 215 227 238 247 234 225 226 216 210 216 218 216 211 215 215 224 232 245 245 243 239 232 236 233 241 246 247 250 245 234 231
51 38 46 72 132 163 168 169 173 182 194 203 212 222 231 232 219 219 214 216 212 206 208 212 211 213 219 219 217 226 226 217 226 232 234 237 243 244 244 244 243 245 246
62 62 54 48 55 104 146 151 159 172 178 181 180 190 204 205 212 218 213 211 206 193 193 192 193 198 197 206 210 220 220 212 216 225 227 226 228 229 237 243 249 252 251
57 60 68 71 69 72 70 79 114 154 156 158 160 161 168 182 191 191 192 189 185 179 180 183 186 189 195 191 195 199 203 189 181 185 198 237 250 255 243 244 235 231 232
57 59 63 74 86 92 97 99 98 98 106 109 118 116 119 129 137 148 160 166 159 156 153 149 155 160 163 165 168 179 202 185 200 206 181 168 162 150 140 132 143 166 203
58 60 61 61 64 74 87 98 109 114 113 111 106 106 102 103 105 107 114 125 128 133 126 122 129 145 150 158 167 173 158 152 152 138 134 153 149 140 130 121 117 115 148
56 60 57 56 64 69 71 77 88 94 104 108 113 115 113 110 107 104 105 108 115 123 119 117 121 122 123 122 126 123 123 127 129 126 138 151 141 134 141 145 110 353 336
59 59 57 60 65 72 81 85 88 95 99 101 101 99 98 96 97 97 96 98 99 106 112 109 100 102 105 110 121 127 131 131 133 142 141 132 109 106 165 177 328 334 329
64 66 64 63 70 84 90 94 98 96 95 103 105 105 106 103 96 97 102 106 107 105 109 111 122 130 143 143 141 134 124 116 119 127 126 132 139 138 152 183 287 299 305
63 69 70 70 73 72 80 90 98 97 101 103 101 101 104 101 99 90 79 78 98 110 130 133 130 126 129 131 135 136 131 127 125 111 106 103 106 68 15 348 326 322 322
51 53 55 57 57 66 72 80 98 115 125 129 119 119 120 128 128 129 119 123 108 85 104 116 120 122 121 122 121 119 119 114 112 121 99 349 338 358 359 352 346 340 331
42 50 46 44 54 64 78 88 92 106 119 116 131 141 141 145 135 117 98 84 109 124 119 118 121 118 115 114 108 111 103 91 78 26 2 332 344 345 336 333 335 335 331
33 34 36 35 36 50 63 79 97 110 117 104 92 90 92 84 99 108 111 121 134 136 130 127 116 108 110 102 94 69 45 16 6 349 335 328 335 330 322 324 329 333 332
24 26 20 19 26 32 38 33 17 357 111 150 136 102 110 124 147 123 133 141 142 130 121 107 96 78 57 51 28 357 334 332 328 324 322 321 320 315 315 320 324 324 326
1 360 4 3 5 4 2 4 10 19 6 191 29 60 62 36 325 183 188 185 181 173 167 175 216 270 290 306 304 305 311 311 312 313 313 311 310 313 317 318 319 323 327
350 352 347 338 344 349 351 360 13 19 24 5 345 351 20 340 315 270 252 256 256 255 261 265 275 282 287 292 293 296 302 303 301 300 300 303 303 306 311 313 317 319 321
328 335 338 336 324 322 330 333 334 339 334 338 341 340 341 340 335 307 294 292 278 270 267 270 277 277 282 285 283 283 286 289 292 294 296 298 303 305 308 311 316 318 318
306 309 311 308 299 297 306 311 312 311 310 318 325 332 338 339 339 337 329 312 300 281 277 276 280 287 290 290 286 283 283 284 284 285 286 290 293 296 299 306 309 313 314
305 305 298 289 286 287 290 292 290 294 301 306 311 315 321 327 332 339 337 338 335 331 312 297 284 286 292 293 292 289 286 287 293 292 289 286 286 287 291 296 301 302 301
314 311 303 294 288 284 283 287 286 288 290 293 297 300 302 305 309 310 313 316 315 311 300 293 279 275 289 292 293 292 290 288 284 278 279 279 278 277 283 291 296 300 303
Height
1367 1377 1383 1386 1389 1393 1398 1403 1407 1411 1412 1416 1419 1422 1425 1428 1430 1431 1431 1432 1431 1429 1433 1440 1445 1452 1460 1466 1472 1478 1480 1485 1487 1491 1495 1499 1501 1504 1507 1510 1512 1514 1516
1372 1379 1382 1385 1386 1394 1398 1403 1405 1408 1410 1413 1416 1419 1422 1424 1425 1427 1427 1427 1425 1427 1431 1436 1442 1448 1456 1462 1469 1472 1476 1479 1483 1489 1493 1495 1498 1501 1504 1505 1507 1509 1508
1373 1374 1379 1383 1387 1392 1397 1400 1402 1405 1409 1410 1414 1417 1420 1422 1423 1424 1424 1423 1423 1427 1431 1432 1436 1444 1450 1457 1464 1469 1472 1475 1479 1485 1489 1492 1494 1496 1498 1499 1501 1499 1501
1371 1374 1377 1380 1383 1388 1392 1397 1401 1401 1405 1408 1412 1415 1417 1419 1420 1421 1422 1422 1423 1425 1427 1431 1433 1441 1446 1453 1460 1465 1469 1473 1476 1480 1482 1484 1486 1488 1490 1490 1492 1492 1494
1372 1372 1372 1366 1379 1383 1390 1395 1399 1401 1403 1407 1410 1412 1415 1416 1418 1419 1419 1420 1421 1423 1426 1429 1432 1439 1445 1450 1455 1460 1464 1468 1470 1473 1475 1477 1478 1479 1481 1484 1486 1486 1487
1373 1370 1372 1366 1376 1381 1385 1392 1396 1399 1401 1405 1408 1410 1412 1414 1416 1417 1418 1419 1421 1423 1426 1428 1431 1438 1443 1448 1452 1456 1458 1460 1463 1467 1468 1470 1473 1476 1477 1479 1480 1480 1482
1376 1370 1370 1375 1371 1378 1382 1389 1393 1397 1401 1403 1407 1408 1410 1412 1413 1415 1416 1418 1420 1423 1425 1427 1430 1434 1438 1441 1445 1449 1452 1456 1458 1460 1463 1466 1467 1470 1472 1472 1473 1475 1475
1383 1381 1381 1382 1374 1377 1387 1386 1389 1394 1400 1403 1405 1407 1409 1410 1411 1413 1415 1417 1418 1420 1424 1426 1429 1431 1434 1437 1440 1444 1448 1450 1453 1456 1458 1460 1462 1464 1465 1466 1467 1468 1470
1390 1387 1388 1388 1387 1388 1386 1386 1388 1393 1397 1401 1403 1405 1407 1409 1411 1412 1413 1415 1418 1419 1422 1424 1426 1429 1432 1435 1438 1440 1443 1445 1447 1449 1451 1453 1455 1457 1460 1461 1462 1464 1465
1399 1396 1395 1393 1393 1396 1393 1393 1394 1395 1395 1400 1401 1403 1405 1406 1409 1412 1413 1414 1415 1417 1420 1422 1425 1427 1430 1433 1436 1438 1440 1442 1443 1446 1448 1451 1452 1453 1456 1457 1458 1459 1461
1407 1407 1405 1404 1401 1401 1399 1399 1401 1404 1402 1406 1406 1406 1407 1408 1409 1412 1414 1415 1417 1418 1420 1421 1424 1427 1430 1433 1436 1438 1441 1443 1442 1444 1447 1451 1452 1455 1455 1456 1458 1459 1460
1412 1412 1412 1412 1411 1410 1409 1406 1406 1405 1404 1409 1410 1411 1412 1412 1414 1417 1419 1420 1421 1423 1423 1424 1426 1428 1430 1433 1436 1440 1443 1446 1449 1444 1447 1455 1456 1455 1455 1456 1457 1459 1460
1417 1417 1418 1418 1416 1415 1414 1414 1417 1415 1414 1413 1413 1414 1414 1416 1418 1422 1423 1424 1426 1425 1426 1430 1433 1433 1434 1433 1440 1443 1445 1448 1450 1448 1451 1456 1454 1455 1456 1456 1456 1457 1459
1422 1423 1423 1424 1423 1422 1422 1421 1422 1424 1423 1421 1425 1426 1420 1424 1423 1426 1428 1429 1430 1430 1431 1431 1437 1437 1437 1440 1445 1445 1447 1449 1451 1453 1453 1454 1455 1455 1457 1456 1456 1456 1458
1430 1429 1430 1431 1430 1430 1429 1430 1430 1431 1430 1429 1431 1429 1427 1427 1431 1433 1433 1434 1435 1434 1436 1435 1437 1440 1442 1444 1447 1449 1448 1448 1452 1455 1454 1454 1456 1456 1456 1455 1455 1456 1456
1437 1436 1437 1437 1437 1436 1434 1433 1433 1435 1435 1436 1435 1434 1434 1433 1435 1437 1437 1437 1437 1439 1440 1439 1441 1442 1444 1445 1446 1447 1449 1449 1453 1454 1455 1456 1456 1457 1455 1454 1455 1454 1453
1441 1441 1440 1440 1440 1438 1438 1437 1437 1439 1439 1438 1438 1438 1438 1438 1440 1441 1441 1441 1440 1440 1441 1442 1445 1447 1448 1449 1449 1450 1450 1451 1453 1452 1452 1456 1457 1454 1454 1454 1454 1452 1451
1445 1444 1444 1444 1444 1443 1442 1441 1442 1442 1442 1442 1442 1442 1442 1443 1443 1443 1443 1442 1443 1444 1445 1447 1449 1450 1450 1450 1450 1452 1452 1452 1452 1453 1452 1453 1452 1452 1453 1453 1452 1451 1450
1448 1448 1447 1447 1446 1446 1446 1446 1445 1445 1445 1445 1445 1445 1445 1444 1444 1444 1444 1445 1446 1446 1448 1450 1450 1451 1451 1451 1452 1452 1451 1452 1452 1452 1452 1452 1449 1451 1454 1453 1451 1449 1448
1452 1451 1450 1450 1449 1449 1448 1448 1448 1447 1447 1446 1446 1446 1446 1447 1447 1446 1447 1447 1448 1448 1449 1449 1449 1450 1451 1451 1451 1452 1451 1451 1451 1450 1450 1449 1449 1452 1452 1451 1449 1448 1447
1453 1452 1452 1452 1451 1451 1450 1450 1449 1449 1448 1448 1448 1447 1447 1447 1447 1447 1448 1448 1447 1447 1448 1449 1450 1451 1451 1450 1451 1450 1449 1450 1450 1449 1449 1449 1450 1450 1449 1449 1448 1446 1445
1454 1453 1452 1452 1452 1452 1451 1451 1450 1450 1450 1450 1449 1448 1448 1448 1448 1448 1447 1447 1447 1448 1449 1449 1449 1449 1449 1450 1450 1448 1448 1449 1449 1449 1448 1447 1448 1448 1448 1448 1446 1444 1443
1454 1453 1453 1452 1452 1452 1452 1451 1451 1451 1451 1450 1449 1449 1448 1448 1447 1447 1447 1447 1446 1447 1447 1448 1448 1447 1448 1448 1448 1448 1448 1448 1447 1447 1446 1446 1446 1446 1446 1445 1443 1441 1440
1453 1453 1452 1452 1451 1451 1451 1451 1450 1450 1450 1449 1449 1448 1448 1447 1447 1447 1447 1446 1445 1445 1445 1446 1446 1446 1446 1446 1446 1446 1445 1445 1445 1445 1445 1444 1444 1444 1443 1442 1441 1439 1438
1452 1451 1451 1451 1450 1450 1450 1449 1449 1449 1448 1448 1447 1447 1447 1446 1446 1446 1445 1445 1444 1444 1444 1443 1444 1444 1443 1443 1443 1443 1442 1442 1442 1442 1442 1442 1441 1440 1440 1440 1438 1438 1437
1450 1449 1448 1448 1448 1448 1448 1448 1447 1447 1447 1446 1446 1446 1446 1445 1445 1445 1444 1443 1442 1441 1441 1441 1442 1442 1442 1441 1441 1440 1439 1439 1439 1440 1440 1439 1438 1437 1437 1437 1436 1435 1433